Flight Track Log - Related Links

Times and Time Zones

All times are in EDT time to prevent confusion due to time zone crossing. See the DAL3643 flight status page for this flight to view local times or setup timezone preferences in your user account.

Time Position Orientation Groundspeed Altitude Reporting Facility
EDT Latitude Longitude Course Direction KTS MPH feet Rate Location/Type
Fri 06:03:59 PM 41.8014 -87.6583 87° East 174 200 3,600  Level Chicago Center
Fri 06:05:01 PM 41.7953 -87.5658 95° East 219 252 5,600 2,177 Climbing Chicago Center
Fri 06:06:03 PM 41.7872 -87.4583 96° East 282 325 8,100 2,256 Climbing Chicago Center
Fri 06:07:06 PM 41.7817 -87.3517 94° East 287 330 10,300 2,064 Climbing Chicago Center
Fri 06:08:08 PM 41.7742 -87.2394 95° East 301 346 12,400 2,032 Climbing Chicago Center
Fri 06:09:10 PM 41.7642 -87.0994 95° East 314 361 14,500 1,984 Climbing Chicago Center
Fri 06:10:12 PM 41.7625 -86.9772 91° East 328 377 16,500 1,645 Climbing Chicago Center
Fri 06:11:14 PM 41.7639 -86.8517 89° East 337 388 17,900 1,210 Climbing Chicago Center
Fri 06:12:16 PM 41.7647 -86.7239 89° East 344 396 19,000 532 Climbing Chicago Center
Fri 06:13:18 PM 41.7661 -86.5739 89° East 361 415 19,000  Level Chicago Center
Fri 06:14:20 PM 41.7664 -86.4261 90° East 395 455 19,000  Level Chicago Center
Fri 06:15:22 PM 41.7789 -86.2664 84° East 432 497 19,000  Level Chicago Center
Fri 06:16:24 PM 41.8100 -86.1069 75° East 443 510 19,000  Level Chicago Center
Fri 06:17:26 PM 41.8408 -85.9456 76° East 445 512 19,000  Level Chicago Center
Fri 06:18:29 PM 41.8714 -85.7856 76° East 441 507 19,000  Level Chicago Center
Fri 06:19:31 PM 41.9083 -85.5944 75° East 439 505 19,000  Level Chicago Center
Fri 06:20:33 PM 41.9386 -85.4364 76° East 435 501 19,000  Level Chicago Center
Fri 06:21:35 PM 41.9339 -85.2844 92° East 414 476 19,000  Level Chicago Center
Fri 06:22:37 PM 41.9206 -85.1336 97° East 404 465 19,000  Level Chicago Center
Fri 06:23:39 PM 41.9083 -84.9817 96° East 406 467 19,000 -242 Level Chicago Center
Fri 06:24:41 PM 41.8944 -84.8222 97° East 425 489 18,500 -968 Descending Chicago Center
Fri 06:25:43 PM 41.8803 -84.6633 97° East 429 494 17,000 -1,423 Descending Chicago Center
Fri 06:26:18 PM 41.8728 -84.5697 96° East 425 489 16,200 -1,586 Descending Cleveland Center
Fri 06:27:10 PM 41.8586 -84.4208 97° East 407 468 14,700 -1,452 Descending Cleveland Center
Fri 06:27:20 PM 41.8597 -84.4183 59° Northeast 413 475 14,700 -1,522 Level Cleveland Center
Fri 06:28:17 PM 41.8439 -84.2528 97° East 397 457 13,000 -1,645 Descending Cleveland Center
Fri 06:28:22 PM 41.8436 -84.2583 266° West 402 463 13,000 -1,701 Level Cleveland Center
Fri 06:29:24 PM 41.8325 -84.1339 97° East 345 397 11,100 -974 Descending Cleveland Center
Fri 06:30:19 PM 41.8436 -84.0117 83° East 341 392 11,100 -97 Level Cleveland Center
Fri 06:30:26 PM 41.8508 -83.9958 59° Northeast 340 391 11,000 -97 Descending Cleveland Center
Fri 06:31:21 PM 41.8950 -83.9239 50° Northeast 263 303 11,000  Level Cleveland Center
Fri 06:31:28 PM 41.9003 -83.9092 64° Northeast 301 346 11,000 98 Level Cleveland Center
Fri 06:32:22 PM 41.9431 -83.8494 46° Northeast 240 276 11,100 97 Climbing Cleveland Center
Fri 06:32:30 PM 41.9447 -83.8436 69° East 246 283 11,100  Level Cleveland Center
Fri 06:33:23 PM 41.9942 -83.7869 40° Northeast 250 288 11,100 -97 Level Cleveland Center
Fri 06:33:32 PM 41.9964 -83.7817 60° Northeast 248 285 11,000  Descending Cleveland Center
Fri 06:34:24 PM 42.0453 -83.7269 40° Northeast 248 285 11,100  Climbing Cleveland Center
Fri 06:34:35 PM 42.0475 -83.7217 60° Northeast 247 284 11,000  Descending Cleveland Center
Fri 06:35:20 PM 42.0892 -83.6769 39° Northeast 221 254 11,100  Climbing Cleveland Center
Fri 06:35:37 PM 42.0933 -83.6694 53° Northeast 223 257 11,000  Descending Cleveland Center
Fri 06:36:27 PM 42.1425 -83.6144 40° Northeast 221 254 11,100  Climbing Cleveland Center
Fri 06:36:39 PM 42.1508 -83.6039 43° Northeast 224 258 11,000  Descending Cleveland Center
Fri 06:37:22 PM 42.1864 -83.5644 39° Northeast 226 260 11,100  Climbing Cleveland Center
Fri 06:37:41 PM 42.1933 -83.5536 49° Northeast 227 261 11,000  Descending Cleveland Center
Fri 06:38:23 PM 42.2456 -83.5306 18° North 235 270 11,100 -290 Climbing Cleveland Center
Fri 06:38:43 PM 42.2642 -83.5244 14° North 227 261 10,700 -1,574 Descending Cleveland Center
Fri 06:39:24 PM 42.3042 -83.5053 20° North 216 249 9,500 -2,032 Descending Cleveland Center
Fri 06:39:45 PM 42.3233 -83.4933 25° Northeast 222 255 8,600 -2,866 Descending Cleveland Center
Fri 06:40:31 PM 42.3700 -83.4694 21° North 217 250 6,300 -2,613 Descending Cleveland Center
Fri 06:40:47 PM 42.3794 -83.4628 28° Northeast 218 251 5,900 -1,770 Descending Cleveland Center
Fri 06:41:32 PM 42.4172 -83.4281 34° Northeast 202 232 4,500 -1,645 Descending Cleveland Center
Fri 06:41:49 PM 42.4142 -83.4142 107° East 210 242 4,200 -393 Descending Cleveland Center
Fri 06:42:33 PM 42.4078 -83.3617 99° East 168 193 4,100 -194 Descending Cleveland Center
Fri 06:42:51 PM 42.4042 -83.3475 109° East 188 216 4,000 -295 Descending Cleveland Center
Fri 06:43:34 PM 42.3822 -83.3100 128° Southeast 179 206 3,800 -97 Descending Cleveland Center
Fri 06:43:53 PM 42.3756 -83.3083 170° South 180 207 3,900 -984 Climbing Cleveland Center
Fri 06:44:35 PM 42.3339 -83.3117 183° South 172 198 2,800 -1,258 Descending Cleveland Center
Fri 06:44:55 PM 42.3269 -83.3111 177° South 175 201 2,600 -655 Descending Cleveland Center
Fri 06:45:30 PM 42.2914 -83.3200 190° South 165 190 2,200 -581 Descending Cleveland Center
Fri 06:45:57 PM 42.2817 -83.3247 200° South 176 203 2,000 -787 Descending Cleveland Center
Fri 06:46:31 PM 42.2539 -83.3456 209° Southwest 143 165 1,400 -871 Descending Cleveland Center
Fri 06:46:59 PM 42.2394 -83.3542 204° Southwest 149 171 1,100 -643 Descending Cleveland Center

Login

Don't have an account? Register now (free) for customized features, flight alerts, and more!